Location: Caltech
(34.1382°N, 118.1253°W)
Time: 16:09:33
(UTC-08:00)

Daily predictions for brighter satellites

Satellite Brightness Start Highest point End
(mag) Time Altitude Azimuth Time Altitude Azimuth Time Altitude Azimuth
CZ-3A R/B 4.0 16:56:40 10° W 17:00:51 35° NNW 17:17:01 10° NE
IDEFIX/ARIANE 42P 2.7 17:03:17 10° SSE 17:08:17 51° ENE 17:13:18 10° N
AQUARIUS 4.4 17:04:26 10° SSE 17:08:45 49° ENE 17:13:05 10° N
Cosmos 1812 2.7 17:10:46 10° S 17:14:36 87° ESE 17:18:28 10° N
SL-8 Rocket 4.1 17:10:02 10° N 17:16:13 86° W 17:22:22 10° S
Cosmos 1844 Rocket 4.3 17:13:54 10° SW 17:18:51 32° WNW 17:23:50 10° N
KM-V1 4.4 17:16:51 10° WSW 17:19:19 32° S 17:21:12 10° ESE
SL-27 R/B 3.2 17:16:20 10° NNW 17:19:57 61° WSW 17:23:29 10° S
Thor Agena Rocket 3.7 17:16:53 10° NNE 17:22:08 84° WNW 17:27:24 10° SSW
Okean 1 3.3 17:23:49 10° S 17:27:51 87° E 17:31:56 10° N
Cosmos 2366 rocket 4.0 17:22:21 10° N 17:28:44 86° E 17:35:00 10° S
Cosmos 2251 Rocket 3.7 17:24:09 10° NNW 17:29:30 81° WSW 17:34:47 10° SSE
CORIOLIS 4.1 17:25:00 10° SSE 17:30:23 75° ENE 17:35:46 10° N
OTV 4 3.2 17:28:39 10° WSW 17:30:52 19° SSW 17:33:04 10° SSE
Cosmos 2218 Rocket 4.3 17:30:07 10° N 17:36:21 71° W 17:42:28 10° S
NOSS 2-1 (D) 3.4 17:33:51 10° SSW 17:37:34 56° ESE 17:40:54 14° NE
NOSS 2-1 (C) 3.4 17:34:32 10° SSW 17:38:16 55° ESE 17:41:33 14° NE
Cosmos 1346 Rocket 2.6 17:34:36 10° S 17:38:30 80° E 17:42:23 10° N
Timation 1 Rocket 4.4 17:35:14 10° S 17:41:05 62° ESE 17:46:58 10° NNE
Cosmos 2297 3.7 17:40:07 10° SSW 17:45:45 84° ESE 17:51:25 10° NNE
COSMO-SKYMED 1 2.5 17:49:26 10° NNE 17:53:47 77° ESE 17:58:07 10° S
SMAP 4.1 17:49:23 10° S 17:53:52 50° W 17:58:23 10° NNW
Meteor 2-21 4.4 17:48:00 10° N 17:54:11 75° E 18:00:16 10° SSE
Timation 2 Rocket 4.2 17:49:39 10° NNW 17:56:22 56° ENE 18:03:06 10° SE
NOSS 2-1 (E) 3.2 17:53:02 10° SSW 17:56:52 86° SE 17:59:37 20° NNE
Cosmos 2278 Rocket 3.7 17:52:36 10° SW 17:57:42 34° WNW 18:02:49 10° N
ATLAS 3B CENTAUR R/B 4.3 17:38:45 10° WSW 18:02:14 66° S 18:08:44 18° ESE
Cosmos 1821 Rocket 4.1 17:57:02 10° N 18:02:51 46° E 18:08:40 10° SSE
Genesis I 3.0 17:59:31 10° NNW 18:03:26 83° ENE 18:07:19 10° SSE
GRACE-2 4.1 18:04:05 10° S 18:06:51 69° W 18:08:58 16° N
GRACE-1 4.2 18:04:31 10° S 18:07:16 66° W 18:09:28 15° N
OAO 1 4.5 18:04:32 10° W 18:10:02 89° SSW 18:12:58 29° ESE
Cosmos 2056 Rocket 3.7 18:05:09 10° S 18:10:20 51° ESE 18:13:05 26° NE
Cosmos 1025 Rocket 3.0 18:06:17 10° S 18:10:34 60° E 18:13:23 21° NNE
Cosmos 921 Rocket 3.5 18:09:01 10° SSW 18:13:10 59° WNW 18:17:12 11° N
Meteor 2-14 Rocket 4.3 18:07:58 10° N 18:14:08 79° E 18:20:15 10° S
CZ-4 R/B 4.4 18:11:38 10° SW 18:14:36 19° W 18:17:33 10° NW
Cosmos 1743 2.6 18:14:30 10° N 18:18:23 88° E 18:22:13 10° S
Cosmos 1484 Rocket 3.4 18:16:27 10° S 18:20:08 54° W 18:23:48 10° NNW
COSMOS 2487 3.4 18:16:46 10° NNW 18:20:15 49° WSW 18:23:42 10° S
Intercosmos 25 3.2 18:19:14 10° NNW 18:22:21 68° W 18:25:58 10° S
Meteor 1-19 Rocket 4.5 18:17:29 10° SSW 18:23:14 73° W 18:29:05 10° N
Cosmos 1624 Rocket 3.8 18:18:33 10° S 18:23:43 76° ESE 18:26:24 29° NNE
Tiangong 1 3.1 18:21:24 10° WNW 18:23:18 19° NNW 18:23:18 19° NNW
Cosmos 1833 Rocket 2.6 18:18:21 10° NNW 18:23:59 67° ENE 18:29:33 10° SSE
Cosmos 2082 Rocket 2.1 18:21:19 10° NNW 18:27:01 85° ENE 18:32:42 10° SSE
Meteor 1-28 Rocket 3.5 18:25:55 26° N 18:27:54 68° WNW 18:31:39 10° SSW
Cosmos 1371 Rocket 4.1 18:23:27 10° SSW 18:28:47 77° WNW 18:32:33 20° NNE
GEOS 3 Rocket 3.8 18:28:52 45° ENE 18:29:07 45° NE 18:33:58 10° NNW
NOSS 3-4 (A) 4.1 18:24:45 10° NNW 18:31:24 41° NE 18:32:40 39° ENE
NOSS 3-4 (C) 4.2 18:24:52 10° NNW 18:31:30 41° NE 18:32:42 39° ENE
Meteor 1-15 Rocket 4.3 18:32:52 10° N 18:38:39 56° E 18:44:19 10° SSE
Cosmos 1727 Rocket 4.0 18:38:54 10° SSE 18:44:58 56° E 18:45:19 55° ENE
BREEZE M DEB (TANK) 4.4 18:40:23 10° NNW 18:45:02 42° NE 18:46:07 40° ENE
Delta 2 Rocket 3.8 18:44:22 10° W 18:47:27 53° WNW 18:47:27 53° WNW
Meteor 1-23 Rocket 4.5 18:44:03 10° SSW 18:49:45 69° W 18:53:56 19° N
Cosmos 1892 Rocket 4.0 18:50:47 10° SSW 18:54:20 57° SW 18:54:20 57° SW
Cosmos 2369 Rocket 3.4 18:57:38 10° S 19:00:26 29° SSE 19:00:26 29° SSE
FALCON 9 R/B 2.9 18:43:17 10° W 19:03:23 87° N 19:04:45 64° E
Meteor 2-9 Rocket 4.4 18:58:37 10° NNW 19:03:58 65° W 19:09:12 10° S
